Location: Fort Worth, Tx
(32.7431°N, 97.3695°W)
Time: 06:42:51
(UTC-04:00)

A-11 Canister half - Pass Details

Date: 29 February 2024
Orbit: 1525 x 1683 km, 47.3° (Epoch: 01 November)

Event Time Altitude Azimuth Distance (km) Brightness Sun altitude
Rises 21:41:30 0° 256° (WSW) 4,810 12.6 -29.1°
Reaches altitude 10° 21:44:49 10° 261° (W) 3,803 11.9 -29.8°
Maximum altitude 21:54:03 49° 335° (NNW) 1,935 9.6 -31.7°
Enters shadow 21:58:38 30° 32° (NNE) 2,517 9.9 -32.6°
